FW8874 Weather Reports


Display with metric or nautical units.
time (UTC)temp
F
wind
direction
speed
MPH
gust
MPH
rain 1hr
in
rain 24hr
in
rain mn
in
humidity
%
barometer
mb
20260506041530 46 47 1.0 6.0 0.00 0.00 0.00 85 1012.7
20260506040036 46 19 1.0 6.0 0.00 0.00 0.00 85 1012.7
20260506034533 47 0 2.0 6.0 0.00 0.00 0.00 85 1012.7
20260506033030 47 41 2.0 7.0 0.00 0.00 0.00 86 1012.7
20260506031539 47 321 1.0 4.0 0.00 0.00 0.00 86 1012.7
20260506030031 47 22 1.0 3.0 0.00 0.00 0.00 86 1012.7
20260506024533 47 36 1.0 4.0 0.00 0.00 0.00 85 1012.8
20260506023050 47 25 0.0 5.0 0.00 0.00 0.00 84 1012.7
20260506021552 47 0 1.0 7.0 0.00 0.00 0.00 83 1012.7
20260506020032 48 58 0.0 4.0 0.00 0.00 0.00 82 1012.9
20260506014532 48 34 0.0 6.0 0.00 0.00 0.00 81 1012.9
20260506013035 48 72 1.0 8.0 0.00 0.00 0.00 80 1012.9
20260506011531 49 67 1.0 9.0 0.00 0.00 0.00 80 1013.0
20260506010032 49 36 3.0 8.0 0.00 0.00 0.00 80 1013.1
20260506004534 49 81 3.0 9.0 0.00 0.00 0.00 81 1012.9
20260506003032 49 300 2.0 7.0 0.00 0.00 0.00 82 1013.0
20260506001532 50 312 2.0 6.0 0.00 0.00 0.00 82 1013.0
20260506000030 50 96 1.0 7.0 0.00 0.00 0.00 82 1013.0
20260505234532 50 345 1.0 5.0 0.00 0.00 0.00 82 1013.0
20260505233035 51 0 0.0 5.0 0.00 0.00 0.00 82 1013.1
20260505231546 51 0 2.0 7.0 0.00 0.00 0.00 80 1012.9
20260505230030 52 65 0.0 7.0 0.00 0.00 0.00 78 1012.9
20260505224532 52 34 2.0 6.0 0.00 0.00 0.00 77 1012.9
20260505223031 52 14 1.0 6.0 0.00 0.00 0.00 77 1012.7
20260505221534 52 49 1.0 8.0 0.00 0.00 0.00 76 1012.7
20260505220033 52 50 3.0 7.0 0.00 0.00 0.00 76 1012.7
20260505214548 53 37 2.0 9.0 0.00 0.00 0.00 76 1012.8
20260505213038 53 33 1.0 8.0 0.00 0.00 0.00 76 1012.7
20260505211530 53 38 2.0 11.0 0.00 0.00 0.00 76 1012.5
20260505210031 53 45 0.0 5.0 0.00 0.00 0.00 76 1012.5
20260505204531 54 306 0.0 5.0 0.00 0.00 0.00 75 1012.4
20260505203050 54 0 1.0 6.0 0.00 0.00 0.00 75 1012.4
20260505201540 54 331 0.0 3.0 0.00 0.00 0.00 74 1012.4
20260505200032 54 314 1.0 4.0 0.00 0.00 0.00 74 1012.3
20260505194530 55 328 1.0 4.0 0.00 0.00 0.00 74 1012.2
20260505193033 55 321 1.0 5.0 0.00 0.00 0.00 73 1012.0
20260505191529 55 312 1.0 5.0 0.00 0.00 0.00 72 1011.9
20260505190034 55 339 0.0 3.0 0.00 0.00 0.00 73 1012.0
20260505184534 55 0 1.0 3.0 0.00 0.00 0.00 74 1011.9
20260505183029 56 313 0.0 3.0 0.00 0.00 0.00 73 1011.7
20260505181535 56 0 0.0 2.0 0.00 0.00 0.00 73 1011.6
20260505180029 56 0 1.0 3.0 0.00 0.00 0.00 73 1011.7
20260505174538 56 0 1.0 5.0 0.00 0.00 0.00 72 1011.8
20260505173030 57 306 1.0 6.0 0.00 0.00 0.00 71 1011.9
20260505171533 57 308 2.0 8.0 0.00 0.00 0.00 71 1011.9
20260505170036 57 332 2.0 7.0 0.00 0.00 0.00 71 1012.0
20260505164529 57 298 2.0 7.0 0.00 0.00 0.00 69 1012.0
20260505163034 57 120 1.0 5.0 0.00 0.00 0.00 68 1011.9
20260505161530 57 1 1.0 5.0 0.00 0.00 0.00 69 1012.0
20260505153035 57 1 0.0 5.0 0.00 0.00 0.00 70 1012.1
20260505151545 57 296 1.0 4.0 0.00 0.00 0.00 70 1012.1
20260505124532 56 0 1.0 5.0 0.00 0.00 0.00 72 1012.8
20260505123033 56 308 2.0 7.0 0.00 0.00 0.00 70 1012.7
20260505121531 55 321 1.0 8.0 0.00 0.00 0.00 73 1012.7
20260505120038 55 29 3.0 8.0 0.00 0.00 0.00 74 1012.9
20260505114530 54 316 2.0 8.0 0.00 0.00 0.00 77 1012.9
20260505113030 55 25 2.0 7.0 0.00 0.00 0.00 76 1012.9
20260505111532 54 32 3.0 8.0 0.00 0.00 0.00 77 1013.0
20260505101532 53 28 3.0 10.0 0.00 0.00 0.00 78 1013.2
20260505100034 53 72 3.0 9.0 0.00 0.00 0.00 79 1013.4
20260505094530 53 337 1.0 6.0 0.00 0.00 0.00 83 1013.4
20260505093040 52 58 2.0 9.0 0.00 0.00 0.00 83 1013.4
20260505091532 52 25 3.0 10.0 0.00 0.00 0.00 82 1013.6
20260505090038 52 72 4.0 10.0 0.00 0.00 0.00 82 1013.5
20260505084532 52 309 4.0 8.0 0.00 0.00 0.00 83 1013.4
20260505083033 53 29 4.0 9.0 0.00 0.00 0.00 82 1013.6
20260505081532 52 7 2.0 10.0 0.00 0.00 0.00 83 1013.6
20260505080030 53 13 3.0 12.0 0.00 0.00 0.00 82 1013.5
20260505074531 53 292 3.0 11.0 0.00 0.00 0.00 84 1013.5
20260505073037 52 330 2.0 8.0 0.00 0.00 0.00 86 1013.3
20260505071529 52 316 1.0 5.0 0.00 0.00 0.00 88 1013.5
20260505070032 51 299 1.0 5.0 0.00 0.00 0.00 89 1013.6
20260505064531 51 321 1.0 5.0 0.00 0.00 0.00 89 1013.6
20260505063038 50 34 1.0 6.0 0.00 0.00 0.00 90 1013.6
20260505061531 50 0 1.0 6.0 0.00 0.00 0.00 92 1013.5
20260505060034 50 0 0.0 3.0 0.00 0.00 0.00 93 1013.8
20260505054537 49 44 0.0 3.0 0.00 0.00 0.00 92 1013.5
20260505053041 48 18 1.0 4.0 0.00 0.00 0.00 93 1013.6
20260505051535 48 0 1.0 5.0 0.00 0.00 0.00 92 1013.6